Location: Saint Louis
(38.6272°N, 90.1978°W)
Time: 22:03:19
(UTC-06:00)

Tiangong 1 - Visible Passes

Search period start: 24 November 2017 00:00
Search period end: 04 December 2017 00:00
Orbit: 283 x 307 km, 42.8° (Epoch: 24 November)

Date Brightness Start Highest point End Pass type
(mag) Time Alt. Az. Time Alt. Az. Time Alt. Az.
24 Nov 1.5 18:13:50 10° SW 18:15:53 39° S 18:15:53 39° S visible
25 Nov 1.5 18:20:08 10° WSW 18:22:06 47° WSW 18:22:06 47° WSW visible
26 Nov 2.4 18:26:30 10° W 18:28:09 31° WNW 18:28:09 31° WNW visible
27 Nov 3.1 18:32:51 10° WNW 18:34:01 21° WNW 18:34:01 21° WNW visible
28 Nov 0.6 17:03:52 10° WSW 17:06:28 74° NNW 17:09:03 10° ENE visible
28 Nov 3.5 18:39:03 10° WNW 18:39:43 15° WNW 18:39:43 15° WNW visible
29 Nov 1.2 17:09:52 10° W 17:12:23 44° NNW 17:14:53 10° ENE visible
29 Nov 3.9 18:45:03 10° WNW 18:45:18 12° WNW 18:45:18 12° WNW visible
30 Nov 1.6 17:15:48 10° WNW 17:18:13 33° N 17:20:25 11° ENE visible
01 Dec 1.7 17:21:35 10° WNW 17:23:56 29° N 17:25:46 14° ENE visible
02 Dec 1.6 17:27:09 10° WNW 17:29:31 31° N 17:31:03 17° ENE visible
03 Dec 1.2 17:32:29 10° WNW 17:34:57 38° N 17:36:18 20° ENE visible
